Surface/Precipitation History
02/08/2016 08:53  to  2/9/2016 08:53
Change End Date:
Date/Time
(MST)
Sf
Temp Chem Water Layer Surface Precipitation
Sfc Pvt Sub Frz Factor Pct Dpth DpthThk IcePct Cond Salin FI Type Intens Accum Rate
02/09/2016 08:45 Ice Watch 26.8F - 31F - 95 - - - - 1 mhos 113 - None None - -
02/09/2016 08:39 Ice Watch 26.4F - 31F - 95 - - - - 1 mhos 120 - None None - -
02/09/2016 08:31 Ice Watch 25.9F - 31F - 95 - - - - 1 mhos 114 - None None - -
02/09/2016 08:29 Ice Watch 25.9F - 31F - 95 - - - - 1 mhos 113 - None None - -
02/09/2016 08:19 Ice Watch 25.7F - 31F - 95 - - - - 1 mhos 113 - None None - -
02/09/2016 08:16 Ice Watch 25.7F - 31F - 95 - - - - 1 mhos 113 - None None - -
02/09/2016 08:09 Ice Watch 25.5F - 31F - 95 - - - - 1 mhos 114 - None None - -
02/09/2016 08:00 Ice Watch 25.3F - 31F - 95 - - - - 1 mhos 106 - None None - -
02/09/2016 07:59 Ice Watch 25.2F - 31F - 95 - - - - 1 mhos 105 - None None - -
02/09/2016 07:49 Ice Watch 25.0F - 31F - 95 - - - - 1 mhos 102 - None None - -
02/09/2016 07:46 Ice Watch 25.0F - 31F - 95 - - - - 1 mhos 103 - None None - -
02/09/2016 07:39 Ice Watch 24.8F - 31F - 95 - - - - 1 mhos 102 - None None - -
02/09/2016 07:31 Ice Watch 24.6F - 31F - 95 - - - - 1 mhos 98 - None None - -
02/09/2016 07:29 Ice Watch 24.6F - 31F - 95 - - - - 1 mhos 99 - None None - -
02/09/2016 07:19 Ice Watch 24.4F - 31F - 95 - - - - 1 mhos 95 - None None - -
Date/Time
(MST)
Sf
Temp Chem Water Layer Surface Precipitation
Sfc Pvt Sub Frz Factor Pct Dpth DpthThk IcePct Cond Salin FI Type Intens Accum Rate
02/09/2016 07:16 Ice Watch 24.4F - 31F - 95 - - - - 1 mhos 94 - None None - -
02/09/2016 07:09 Ice Watch 24.3F - 31F - 95 - - - - 1 mhos 86 - None None - -
02/09/2016 07:01 Ice Watch 24.1F - 31F - 95 - - - - 1 mhos 84 - None None - -
02/09/2016 06:59 Ice Watch 24.1F - 31F - 95 - - - - 1 mhos 85 - None None - -
02/09/2016 06:48 Ice Watch 24.1F - 31F - 95 - - - - 1 mhos 79 - None None - -
02/09/2016 06:46 Ice Watch 24.1F - 31F - 95 - - - - 1 mhos 78 - None None - -
02/09/2016 06:38 Ice Watch 24.1F - 31F - 95 - - - - 1 mhos 76 - None None - -
02/09/2016 06:30 Ice Watch 24.1F - 31F - 95 - - - - 1 mhos 75 - None None - -
02/09/2016 06:28 Ice Watch 23.9F - 31F - 95 - - - - 1 mhos 75 - None None - -
02/09/2016 06:18 Ice Watch 23.9F - 31F - 95 - - - - 1 mhos 79 - None None - -
02/09/2016 06:16 Ice Watch 23.7F - 31F - 95 - - - - 1 mhos 79 - None None - -
02/09/2016 06:08 Ice Watch 23.5F - 31F - 95 - - - - 1 mhos 77 - None None - -
02/09/2016 06:01 Ice Watch 23.2F - 31F - 95 - - - - 1 mhos 77 - None None - -
02/09/2016 05:58 Ice Watch 23.0F - 31F - 95 - - - - 1 mhos 75 - None None - -
02/09/2016 05:48 Ice Watch 22.5F - 31F - 95 - - - - 1 mhos 77 - None None - -
Date/Time
(MST)
Sf
Temp Chem Water Layer Surface Precipitation
Sfc Pvt Sub Frz Factor Pct Dpth DpthThk IcePct Cond Salin FI Type Intens Accum Rate
02/09/2016 05:45 Ice Watch 22.3F - 31F - 95 - - - - 1 mhos 77 - None None - -
02/09/2016 05:38 Ice Watch 21.9F - 31F - 95 - - - - 1 mhos 77 - None None - -
02/09/2016 05:30 Ice Watch 21.9F - 31F - 95 - - - - 1 mhos 77 - None None - -
02/09/2016 05:28 Ice Watch 21.9F - 31F - 95 - - - - 1 mhos 77 - None None - -
02/09/2016 05:18 Ice Watch 21.9F - 31F - 95 - - - - 1 mhos 77 - None None - -
02/09/2016 05:16 Ice Watch 21.9F - 31F - 95 - - - - 1 mhos 77 - None None - -
02/09/2016 05:08 Ice Watch 21.9F - 31F - 95 - - - - 1 mhos 77 - None None - -
02/09/2016 05:01 Ice Watch 22.1F - 31F - 95 - - - - 1 mhos 77 - None None - -
02/09/2016 04:58 Ice Watch 22.3F - 31F - 95 - - - - 1 mhos 77 - None None - -
02/09/2016 04:48 Ice Watch 22.1F - 31F - 95 - - - - 1 mhos 77 - None None - -
02/09/2016 04:45 Ice Watch 22.3F - 31F - 95 - - - - 1 mhos 78 - None None - -
02/09/2016 04:38 Ice Watch 22.3F - 31F - 95 - - - - 1 mhos 77 - None None - -
02/09/2016 04:31 Ice Watch 22.5F - 31F - 95 - - - - 1 mhos 76 - None None - -
02/09/2016 04:28 Ice Watch 22.5F - 31F - 95 - - - - 1 mhos 77 - None None - -
02/09/2016 04:18 Ice Watch 22.5F - 31F - 95 - - - - 1 mhos 77 - None None - -
Date/Time
(MST)
Sf
Temp Chem Water Layer Surface Precipitation
Sfc Pvt Sub Frz Factor Pct Dpth DpthThk IcePct Cond Salin FI Type Intens Accum Rate
02/09/2016 04:15 Ice Watch 22.5F - 31F - 95 - - - - 1 mhos 77 - None None - -
02/09/2016 04:08 Ice Watch 22.5F - 31F - 95 - - - - 1 mhos 76 - None None - -
02/09/2016 04:01 Ice Watch 22.5F - 31F - 95 - - - - 1 mhos 75 - None None - -
02/09/2016 03:58 Ice Watch 22.6F - 31F - 95 - - - - 1 mhos 74 - None None - -
02/09/2016 03:48 Ice Watch 22.6F - 31F - 95 - - - - 1 mhos 75 - None None - -
02/09/2016 03:45 Ice Watch 22.6F - 31F - 95 - - - - 1 mhos 74 - None None - -
02/09/2016 03:37 Ice Watch 22.8F - 31F - 95 - - - - 1 mhos 74 - None None - -
02/09/2016 03:31 Ice Watch 22.8F - 31F - 95 - - - - 1 mhos 75 - None None - -
02/09/2016 03:27 Ice Watch 22.8F - 31F - 95 - - - - 1 mhos 75 - None None - -
02/09/2016 03:17 Ice Watch 22.8F - 31F - 95 - - - - 1 mhos 74 - None None - -
02/09/2016 03:15 Ice Watch 23.0F - 31F - 95 - - - - 1 mhos 74 - None None - -
02/09/2016 03:07 Ice Watch 23.2F - 31F - 95 - - - - 1 mhos 73 - None None - -
02/09/2016 03:01 Ice Watch 23.0F - 31F - 95 - - - - 1 mhos 72 - None None - -
02/09/2016 02:57 Ice Watch 23.2F - 31F - 95 - - - - 1 mhos 72 - None None - -
02/09/2016 02:47 Ice Watch 23.2F - 31F - 95 - - - - 1 mhos 71 - None None - -
Date/Time
(MST)
Sf
Temp Chem Water Layer Surface Precipitation
Sfc Pvt Sub Frz Factor Pct Dpth DpthThk IcePct Cond Salin FI Type Intens Accum Rate
02/09/2016 02:45 Ice Watch 23.2F - 31F - 95 - - - - 1 mhos 71 - None None - -
02/09/2016 02:37 Ice Watch 23.4F - 31F - 95 - - - - 1 mhos 70 - None None - -
02/09/2016 02:31 Ice Watch 23.4F - 31F - 95 - - - - 1 mhos 69 - None None - -
02/09/2016 02:27 Ice Watch 23.4F - 31F - 95 - - - - 1 mhos 69 - None None - -
02/09/2016 02:17 Ice Watch 23.5F - 31F - 95 - - - - 1 mhos 68 - None None - -
02/09/2016 02:15 Ice Watch 23.5F - 31F - 95 - - - - 1 mhos 69 - None None - -
02/09/2016 02:07 Ice Watch 23.5F - 31F - 95 - - - - 1 mhos 68 - None None - -
02/09/2016 02:00 Ice Watch 23.5F - 31F - 95 - - - - 1 mhos 67 - None None - -
02/09/2016 01:57 Ice Watch 23.5F - 31F - 95 - - - - 1 mhos 67 - None None - -
02/09/2016 01:47 Ice Watch 23.5F - 31F - 95 - - - - 1 mhos 66 - None None - -
02/09/2016 01:45 Ice Watch 23.7F - 31F - 95 - - - - 1 mhos 66 - None None - -
02/09/2016 01:37 Ice Watch 23.7F - 31F - 95 - - - - 1 mhos 65 - None None - -
02/09/2016 01:31 Ice Watch 23.7F - 31F - 95 - - - - 1 mhos 64 - None None - -
02/09/2016 01:27 Ice Watch 23.7F - 31F - 95 - - - - 1 mhos 64 - None None - -
02/09/2016 01:17 Ice Watch 23.9F - 31F - 95 - - - - 1 mhos 64 - None None - -
Date/Time
(MST)
Sf
Temp Chem Water Layer Surface Precipitation
Sfc Pvt Sub Frz Factor Pct Dpth DpthThk IcePct Cond Salin FI Type Intens Accum Rate
02/09/2016 01:15 Ice Watch 23.9F - 31F - 95 - - - - 1 mhos 63 - None None - -
02/09/2016 01:07 Ice Watch 23.9F - 31F - 95 - - - - 1 mhos 63 - None None - -
02/09/2016 01:00 Ice Watch 24.1F - 31F - 95 - - - - 1 mhos 63 - None None - -
02/09/2016 00:57 Ice Watch 24.1F - 31F - 95 - - - - 1 mhos 62 - None None - -
02/09/2016 00:47 Ice Watch 24.3F - 31F - 95 - - - - 1 mhos 61 - None None - -
02/09/2016 00:46 Ice Watch 24.3F - 31F - 95 - - - - 1 mhos 61 - None None - -
02/09/2016 00:37 Frost 24.4F - 31F - - - - - - 1 mhos 60 - None None - -
02/09/2016 00:30 Frost 24.4F - 31F - - - - - - 0 mhos 59 - None None - -
02/09/2016 00:27 Frost 24.4F - 31F - - - - - - 0 mhos 59 - None None - -
02/09/2016 00:16 Frost 24.6F - 31F - - - - - - 0 mhos 57 - None None - -
02/09/2016 00:15 Frost 24.6F - 31F - - - - - - 0 mhos 57 - None None - -
02/09/2016 00:06 Frost 24.6F - 31F - - - - - - 0 mhos 56 - None None - -
02/09/2016 00:00 Ice Watch 24.6F - 31F - 95 - - - - 0 mhos 55 - None None - -
02/08/2016 23:56 Ice Watch 24.6F - 31F - 95 - - - - 0 mhos 48 - None None - -
02/08/2016 23:46 Ice Watch 24.8F - 31F - 95 - - - - 0 mhos 49 - None None - -
Date/Time
(MST)
Sf
Temp Chem Water Layer Surface Precipitation
Sfc Pvt Sub Frz Factor Pct Dpth DpthThk IcePct Cond Salin FI Type Intens Accum Rate
02/08/2016 23:45 Frost 24.8F - 31F - - - - - - 0 mhos 47 - None None - -
02/08/2016 23:36 Ice Watch 25.0F - 31F - 95 - - - - 0 mhos 46 - None None - -
02/08/2016 23:31 Ice Watch 25.2F - 31F - 95 - - - - 0 mhos 49 - None None - -
02/08/2016 23:26 Ice Watch 25.2F - 31F - 95 - - - - 0 mhos 47 - None None - -
02/08/2016 23:16 Frost 25.3F - 31F - - - - - - 0 mhos 46 - None None - -
02/08/2016 23:16 Frost 25.3F - 31F - - - - - - 0 mhos 44 - None None - -
02/08/2016 23:06 Frost 25.5F - 31F - - - - - - 0 mhos 49 - None None - -
02/08/2016 23:01 Frost 25.5F - 31F - - - - - - 0 mhos 48 - None None - -
02/08/2016 22:56 Frost 25.7F - 31F - - - - - - 0 mhos 47 - None None - -
02/08/2016 22:46 Frost 25.7F - 31F - - - - - - 0 mhos 45 - None None - -
02/08/2016 22:45 Frost 25.7F - 31F - - - - - - 0 mhos 45 - None None - -
02/08/2016 22:36 Ice Watch 25.9F - 31F - 95 - - - - 0 mhos 43 - None None - -
02/08/2016 22:30 Ice Watch 25.9F - 31F - 95 - - - - 0 mhos 42 - None None - -
02/08/2016 22:26 Ice Watch 26.1F - 31F - 95 - - - - 0 mhos 42 - None None - -
02/08/2016 22:16 Ice Watch 26.2F - 31F - 95 - - - - 0 mhos 40 - None None - -
Date/Time
(MST)
Sf
Temp Chem Water Layer Surface Precipitation
Sfc Pvt Sub Frz Factor Pct Dpth DpthThk IcePct Cond Salin FI Type Intens Accum Rate
02/08/2016 22:15 Ice Watch 26.4F - 31F - 95 - - - - 0 mhos 39 - None None - -
02/08/2016 22:06 Frost 26.4F - 31F - - - - - - 0 mhos 35 - None None - -
02/08/2016 22:01 Ice Watch 26.6F - 31F - 95 - - - - 0 mhos 34 - None None - -
02/08/2016 21:56 Ice Watch 26.6F - 31F - 95 - - - - 0 mhos 33 - None None - -
02/08/2016 21:46 Ice Watch 26.8F - 31F - 95 - - - - 0 mhos 33 - None None - -
02/08/2016 21:45 Ice Watch 26.8F - 31F - 95 - - - - 0 mhos 33 - None None - -
02/08/2016 21:36 Ice Watch 27.0F - 31F - 95 - - - - 0 mhos 31 - None None - -
02/08/2016 21:31 Ice Watch 27.1F - 31F - 95 - - - - 0 mhos 30 - None None - -
02/08/2016 21:26 Ice Watch 27.3F - 31F - 95 - - - - 0 mhos 28 - None None - -
02/08/2016 21:16 Ice Watch 27.5F - 31F - 95 - - - - 0 mhos 26 - None None - -
02/08/2016 21:16 Ice Watch 27.5F - 31F - 95 - - - - 0 mhos 26 - None None - -
02/08/2016 21:06 Ice Watch 27.9F - 31F - 95 - - - - 0 mhos 25 - None None - -
02/08/2016 21:01 Ice Watch 28.0F - 31F - 95 - - - - 0 mhos 22 - None None - -
02/08/2016 20:56 Ice Watch 28.0F - 31F - 95 - - - - 0 mhos 20 - None None - -
02/08/2016 20:46 Ice Watch 28.2F - 31F - 95 - - - - 0 mhos 19 - None None - -
Date/Time
(MST)
Sf
Temp Chem Water Layer Surface Precipitation
Sfc Pvt Sub Frz Factor Pct Dpth DpthThk IcePct Cond Salin FI Type Intens Accum Rate
02/08/2016 20:45 Ice Watch 28.4F - 31F - 95 - - - - 0 mhos 18 - None None - -
02/08/2016 20:35 Ice Watch 28.6F - 31F - 95 - - - - 0 mhos 16 - None None - -
02/08/2016 20:30 Ice Watch 28.8F - 31F - 95 - - - - 0 mhos 16 - None None - -
02/08/2016 20:25 Ice Watch 28.8F - 31F - 95 - - - - 0 mhos 14 - None None - -
02/08/2016 20:15 Ice Watch 28.9F - 31F - 95 - - - - 0 mhos 12 - None None - -
02/08/2016 20:15 Ice Watch 28.9F - 31F - 95 - - - - 0 mhos 12 - None None - -
02/08/2016 20:05 Ice Watch 29.1F - 31F - 95 - - - - 0 mhos 8 - None None - -
02/08/2016 20:01 Ice Watch 29.3F - 31F - 95 - - - - 0 mhos 7 - None None - -
02/08/2016 19:55 Ice Watch 29.3F - 31F - 95 - - - - 0 mhos 6 - None None - -
02/08/2016 19:45 Ice Watch 29.8F - 31F - 95 - - - - 0 mhos 4 - None None - -
02/08/2016 19:45 Ice Watch 29.8F - 31F - 95 - - - - 0 mhos 4 - None None - -
02/08/2016 19:35 Ice Watch 30.0F - 31F - 95 - - - - 0 mhos 3 - None None - -
02/08/2016 19:30 Ice Watch 30.2F - 31F - 95 - - - - 0 mhos 3 - None None - -
02/08/2016 19:25 Ice Watch 30.4F - 31F - 95 - - - - 0 mhos 3 - None None - -
02/08/2016 19:15 Ice Watch 30.7F - 31F - 95 - - - - 0 mhos 2 - None None - -
Date/Time
(MST)
Sf
Temp Chem Water Layer Surface Precipitation
Sfc Pvt Sub Frz Factor Pct Dpth DpthThk IcePct Cond Salin FI Type Intens Accum Rate
02/08/2016 19:15 Ice Watch 30.7F - 31F - 95 - - - - 0 mhos 2 - None None - -
02/08/2016 19:05 Ice Watch 31.3F - 31F - 95 - - - - 0 mhos 3 - None None - -
02/08/2016 19:01 Ice Watch 31.5F - 31F - 95 - - - - 0 mhos 3 - None None - -
02/08/2016 18:55 Ice Watch 31.5F - 31F - 95 - - - - 0 mhos 3 - None None - -
02/08/2016 18:46 Ice Watch 31.8F - 31F - 95 - - - - 0 mhos 2 - None None - -
02/08/2016 18:45 Ice Watch 32.0F - 31F - 95 - - - - 0 mhos 3 - None None - -
02/08/2016 18:35 Trace Moisture 32.5F - 31F - 95 - - - - 0 mhos 3 - None None - -
02/08/2016 18:31 Trace Moisture 32.5F - 31F - 95 - - - - 0 mhos 3 - None None - -
02/08/2016 18:25 Trace Moisture 32.7F - 31F - 95 - - - - 0 mhos 3 - None None - -
02/08/2016 18:16 Trace Moisture 33.3F - 31F - 95 - - - - 0 mhos 2 - None None - -
02/08/2016 18:15 Trace Moisture 33.4F - 31F - 95 - - - - 0 mhos 2 - None None - -
02/08/2016 18:05 Trace Moisture 34.0F - 31F - 95 - - - - 0 mhos 2 - None None - -
02/08/2016 18:01 Trace Moisture 34.2F - 31F - 95 - - - - 0 mhos 2 - None None - -
02/08/2016 17:55 Trace Moisture 34.7F - 31F - 95 - - - - 0 mhos 2 - None None - -
02/08/2016 17:46 Trace Moisture 35.6F - 31F - 95 - - - - 0 mhos 1 - None None - -
Date/Time
(MST)
Sf
Temp Chem Water Layer Surface Precipitation
Sfc Pvt Sub Frz Factor Pct Dpth DpthThk IcePct Cond Salin FI Type Intens Accum Rate
02/08/2016 17:45 Trace Moisture 35.6F - 31F - 95 - - - - 0 mhos 1 - None None - -
02/08/2016 17:35 Trace Moisture 36.5F - 31F - 95 - - - - 0 mhos 1 - None None - -
02/08/2016 17:31 Trace Moisture 36.9F - 31F - 95 - - - - 0 mhos 1 - None None - -
02/08/2016 17:24 Trace Moisture 37.4F - 31F - 95 - - - - 0 mhos 1 - None None - -
02/08/2016 17:16 Trace Moisture 37.8F - 31F - 95 - - - - 0 mhos 1 - None None - -
02/08/2016 17:14 Trace Moisture 37.8F - 31F - 95 - - - - 0 mhos 1 - None None - -
02/08/2016 17:04 Trace Moisture 37.9F - 31F - 95 - - - - 0 mhos 1 - None None - -
02/08/2016 17:00 Trace Moisture 38.3F - 31F - 95 - - - - 0 mhos 1 - None None - -
02/08/2016 16:54 Trace Moisture 38.7F - 31F - 95 - - - - 0 mhos 1 - None None - -
02/08/2016 16:45 Trace Moisture 39.0F - 31F - 95 - - - - 0 mhos 1 - None None - -
02/08/2016 16:44 Trace Moisture 39.0F - 31F - 85 - - - - 0 mhos 1 - None None - -
02/08/2016 16:34 Trace Moisture 39.7F - 31F - 45 - - - - 0 mhos 0 - None None - -
02/08/2016 16:31 Trace Moisture 39.9F - 31F - 45 - - - - 0 mhos 0 - None None - -
02/08/2016 16:24 Trace Moisture 40.5F - 31F - 45 - - - - 0 mhos 0 - None None - -
02/08/2016 16:16 Dry 41.2F - 31F - - - - - - 0 mhos 0 - None None - -
Date/Time
(MST)
Sf
Temp Chem Water Layer Surface Precipitation
Sfc Pvt Sub Frz Factor Pct Dpth DpthThk IcePct Cond Salin FI Type Intens Accum Rate
02/08/2016 16:14 Dry 41.2F - 31F - - - - - - 0 mhos 0 - None None - -
02/08/2016 16:04 Dry 41.9F - 31F - - - - - - 0 mhos 0 - None None - -
02/08/2016 16:01 Dry 42.3F - 31F - - - - - - 0 mhos 0 - None None - -
02/08/2016 15:54 Dry 42.3F - 31F - - - - - - 0 mhos 0 - None None - -
02/08/2016 15:45 Dry 42.4F - 31F - - - - - - 0 mhos 0 - None None - -
02/08/2016 15:44 Dry 42.6F - 31F - - - - - - 0 mhos 0 - None None - -
02/08/2016 15:34 Dry 43.2F - 31F - - - - - - 0 mhos 0 - None None - -
02/08/2016 15:31 Dry 43.2F - 31F - - - - - - 0 mhos 0 - None None - -
02/08/2016 15:24 Dry 43.9F - 31F - - - - - - 0 mhos 0 - None None - -
02/08/2016 15:16 Dry 45.3F - 31F - - - - - - 0 mhos 0 - None None - -
02/08/2016 15:14 Dry 46.2F - 31F - - - - - - 0 mhos 0 - None None - -
02/08/2016 15:04 Dry 46.0F - 31F - - - - - - 0 mhos 0 - None None - -
02/08/2016 15:00 Dry 46.0F - 31F - - - - - - 0 mhos 0 - None None - -
02/08/2016 14:54 Dry 46.2F - 31F - - - - - - 0 mhos 0 - None None - -
02/08/2016 14:46 Dry 46.9F - 31F - - - - - - 0 mhos 0 - None None - -
Date/Time
(MST)
Sf
Temp Chem Water Layer Surface Precipitation
Sfc Pvt Sub Frz Factor Pct Dpth DpthThk IcePct Cond Salin FI Type Intens Accum Rate
02/08/2016 14:44 Dry 48.2F - 31F - - - - - - 0 mhos 0 - None None - -
02/08/2016 14:33 Dry 47.3F - 31F - - - - - - 0 mhos 0 - None None - -
02/08/2016 14:31 Dry 44.6F - 31F - - - - - - 0 mhos 0 - None None - -
02/08/2016 14:23 Dry 44.1F - 31F - - - - - - 0 mhos 0 - None None - -
02/08/2016 14:16 Dry 45.9F - 31F - - - - - - 0 mhos 0 - None None - -
02/08/2016 14:13 Dry 46.4F - 31F - - - - - - 0 mhos 0 - None None - -
02/08/2016 14:03 Dry 50.7F - 31F - - - - - - 0 mhos 0 - None None - -
02/08/2016 14:01 Dry 53.6F - 31F - - - - - - 0 mhos 0 - None None - -
02/08/2016 13:53 Dry 52.9F - 31F - - - - - - 0 mhos 0 - None None - -
02/08/2016 13:46 Dry 52.2F - 31F - - - - - - 0 mhos 0 - None None - -
02/08/2016 13:43 Dry 51.6F - 31F - - - - - - 0 mhos 0 - None None - -
02/08/2016 13:33 Dry 47.3F - 31F - - - - - - 0 mhos 1 - None None - -
02/08/2016 13:30 Dry 48.2F - 31F - - - - - - 0 mhos 1 - None None - -
02/08/2016 13:23 Dry 50.2F - 31F - - - - - - 0 mhos 1 - None None - -
02/08/2016 13:16 Dry 49.3F - 31F - - - - - - 0 mhos 1 - None None - -
Date/Time
(MST)
Sf
Temp Chem Water Layer Surface Precipitation
Sfc Pvt Sub Frz Factor Pct Dpth DpthThk IcePct Cond Salin FI Type Intens Accum Rate
02/08/2016 13:13 Dry 49.3F - 31F - - - - - - 0 mhos 1 - None None - -
02/08/2016 13:03 Dry 48.9F - 31F - - - - - - 0 mhos 2 - None None - -
02/08/2016 13:01 Dry 49.1F - 31F - - - - - - 0 mhos 2 - None None - -
02/08/2016 12:53 Dry 47.7F - 31F - - - - - - 0 mhos 2 - None None - -
02/08/2016 12:46 Dry 48.6F - 31F - - - - - - 0 mhos 3 - None None - -
02/08/2016 12:43 Dry 48.4F - 31F - - - - - - 0 mhos 3 - None None - -
02/08/2016 12:33 Dry 47.5F - 31F - - - - - - 0 mhos 4 - None None - -
02/08/2016 12:31 Dry 47.3F - 31F - - - - - - 0 mhos 4 - None None - -
02/08/2016 12:23 Dry 47.7F - 31F - - - - - - 0 mhos 5 - None None - -
02/08/2016 12:15 Dry 47.5F - 31F - - - - - - 0 mhos 6 - None None - -
02/08/2016 12:13 Dry 47.7F - 31F - - - - - - 0 mhos 7 - None None - -
02/08/2016 12:03 Dry 49.8F - 31F - - - - - - 0 mhos 10 - None None - -
02/08/2016 12:01 Dry 50.0F - 31F - - - - - - 0 mhos 10 - None None - -
02/08/2016 11:53 Dry 50.4F - 31F - - - - - - 0 mhos 14 - None None - -
02/08/2016 11:46 Dry 50.2F - 31F - - - - - - 0 mhos 15 - None None - -
Date/Time
(MST)
Sf
Temp Chem Water Layer Surface Precipitation
Sfc Pvt Sub Frz Factor Pct Dpth DpthThk IcePct Cond Salin FI Type Intens Accum Rate
02/08/2016 11:43 Dry 49.5F - 31F - - - - - - 0 mhos 17 - None None - -
02/08/2016 11:33 Dry 45.7F - 31F - - - - - - 0 mhos 21 - None None - -
02/08/2016 11:31 Dry 46.4F - 31F - - - - - - 0 mhos 22 - None None - -
02/08/2016 11:23 Dry 46.8F - 31F - - - - - - 0 mhos 22 - None None - -
02/08/2016 11:16 Dry 45.0F - 31F - - - - - - 0 mhos 27 - None None - -
02/08/2016 11:12 Dry 44.2F - 31F - - - - - - 0 mhos 29 - None None - -
02/08/2016 11:02 Dry 43.0F - 31F - - - - - - 0 mhos 29 - None None - -
02/08/2016 11:01 Dry 42.4F - 31F - - - - - - 0 mhos 32 - None None - -
02/08/2016 10:52 Trace Moisture 41.7F - 31F - 95 - - - - 0 mhos 33 - None None - -
02/08/2016 10:46 Trace Moisture 40.1F - 31F - 95 - - - - 0 mhos 40 - None None - -
02/08/2016 10:42 Trace Moisture 39.9F - 31F - 95 - - - - 0 mhos 41 - None None - -
02/08/2016 10:32 Trace Moisture 39.2F - 31F - 95 - - - - 0 mhos 46 - None None - -
02/08/2016 10:31 Trace Moisture 39.0F - 31F - 95 - - - - 0 mhos 46 - None None - -
02/08/2016 10:22 Trace Moisture 37.4F - 31F - 95 - - - - 1 mhos 50 - None None - -
02/08/2016 10:16 Trace Moisture 37.4F - 31F - 95 - - - - 1 mhos 51 - None None - -
Date/Time
(MST)
Sf
Temp Chem Water Layer Surface Precipitation
Sfc Pvt Sub Frz Factor Pct Dpth DpthThk IcePct Cond Salin FI Type Intens Accum Rate
02/08/2016 10:12 Trace Moisture 37.2F - 31F - 95 - - - - 1 mhos 51 - None None - -
02/08/2016 10:02 Trace Moisture 37.4F - 31F - 95 - - - - 1 mhos 52 - None None - -
02/08/2016 10:00 Trace Moisture 37.4F - 31F - 95 - - - - 1 mhos 53 - None None - -
02/08/2016 09:52 Trace Moisture 34.2F - 31F - 95 - - - - 1 mhos 58 - None None - -
02/08/2016 09:46 Trace Moisture 32.9F - 31F - 95 - - - - 1 mhos 60 - None None - -
02/08/2016 09:42 Trace Moisture 32.4F - 31F - 95 - - - - 1 mhos 61 - None None - -
02/08/2016 09:32 Ice Watch 31.5F - 31F - 95 - - - - 1 mhos 63 - None None - -
02/08/2016 09:31 Ice Watch 31.5F - 31F - 95 - - - - 1 mhos 63 - None None - -
02/08/2016 09:22 Ice Watch 30.9F - 31F - 95 - - - - 1 mhos 62 - None None - -
02/08/2016 09:16 Ice Watch 31.1F - 31F - 95 - - - - 1 mhos 61 - None None - -
02/08/2016 09:12 Ice Watch 30.7F - 31F - 95 - - - - 1 mhos 61 - None None - -
02/08/2016 09:02 Ice Watch 30.4F - 31F - 95 - - - - 1 mhos 62 - None None - -
02/08/2016 09:00 Ice Watch 30.4F - 31F - 95 - - - - 1 mhos 62 - None None - -
Change End Date:

Copyright © 1998-2015 Vaisala, Inc.
All Rights Reserved
Send comments about the data to:
SCAN Web ® is a registered trademark of Vaisala, Inc.
SCAN Web Version 6.0